Rayong, Thailand

5:12 AM +07 on November 24, 2017 (GMT +0700)
U-Taphao International

Weather History for VTBU - December, 2011

Change the Weather History Date:

Tuesday, December 20, 2011

  Actual Average Record
Temperature  
Mean Temperature 79 °F -  
Max Temperature 89 °F 86 °F 93 °F (2000)
Min Temperature 69 °F 70 °F 64 °F (2013)
Cooling Degree Days 14    
Growing Degree Days 29 (Base 50)    
Moisture  
Dew Point 64 °F    
Average Humidity 59    
Maximum Humidity 83    
Minimum Humidity 43    
Precipitation  
Precipitation 0.00 in - - ()
Sea Level Pressure  
Sea Level Pressure 29.84 in    
Wind  
Wind Speed 11 mph ()    
Max Wind Speed 54 mph    
Max Gust Speed -    
Visibility 2.5 miles    
Events      
Averages and records for this station are not official NWS values.
T = Trace of Precipitation, MM = Missing Value Source: Averaged Metar Reports

Daily Weather History Graph

Daily Weather History Graph

Search for Another Location

Airport or City:

Trip Planner

Search our weather history database for the weather conditions in past years. The results will help you decide how hot, cold, wet, or windy it might be!

Date:

Astronomy

Dec. 20, 2011 Rise Set
Actual Time 6:30 AM +07 5:53 PM +07
Civil Twilight 6:07 AM +07 6:16 PM +07
Nautical Twilight 5:40 AM +07 6:43 PM +07
Astronomical Twilight 5:14 AM +07 7:09 PM +07
Moon 1:43 AM +07 (12/20) 1:44 PM +07 (12/20)
Length of Visible Light 12h 09m
Length of Day
11h 23m
Waning Crescent, 26% of the Moon is Illuminated
Dec 20
Waning Crescent
Dec 25
New
Jan 1
First Quarter
Jan 9
Full
Jan 16
Last Quarter

Hourly Weather History & Observations

Time (+07) Temp. Heat Index Dew Point Humidity Pressure Visibility Wind Dir Wind Speed Gust Speed Precip Events Conditions
12:00 AM 75.2 °F - 64.4 °F 69% 29.86 in 2.5 mi NNE 54.1 mph - N/A   Mist
3:00 AM 71.6 °F - 64.4 °F 78% 29.83 in 1.9 mi NE 4.6 mph - N/A   Mist
4:00 AM 71.6 °F - 64.4 °F 78% 29.83 in 1.9 mi NNE 4.6 mph - N/A   Mist
5:00 AM 89.6 °F 91.1 °F 64.4 °F 43% 29.83 in 1.9 mi NNE 4.6 mph - N/A   Mist
6:00 AM - - - N/A% 29.86 in 1.9 mi NNE 6.9 mph - N/A   Mist
6:30 AM 69.8 °F - 64.4 °F 83% 29.86 in 1.9 mi NNW 4.6 mph - N/A   Mist
7:00 AM 69.8 °F - 64.4 °F 83% 29.89 in 1.9 mi NNW 2.3 mph - N/A   Mist
7:30 AM 69.8 °F - 62.6 °F 78% 29.89 in 1.9 mi NNW 6.9 mph - N/A   Mist
8:00 AM 73.4 °F - 64.4 °F 73% 29.89 in 1.9 mi North 5.8 mph - N/A   Mist
8:30 AM 77.0 °F - 62.6 °F 61% 29.92 in 2.5 mi NNE 9.2 mph - N/A   Mist
9:00 AM 78.8 °F - 62.6 °F 57% 29.92 in 2.5 mi NNE 11.5 mph - N/A   Mostly Cloudy
9:30 AM 80.6 °F 81.5 °F 60.8 °F 51% 29.92 in 2.5 mi North 11.5 mph - N/A   Mostly Cloudy
10:00 AM 78.8 °F - 60.8 °F 54% 29.92 in 2.5 mi NNE 11.5 mph - N/A   Haze
10:30 AM 80.6 °F 81.5 °F 60.8 °F 51% 29.89 in 3.1 mi NNE 13.8 mph - N/A   Haze
11:00 AM 82.4 °F 82.9 °F 60.8 °F 48% 29.89 in 3.1 mi NNE 11.5 mph - N/A   Haze
11:30 AM 82.4 °F 82.9 °F 60.8 °F 48% 29.89 in 3.1 mi NE 11.5 mph - N/A   Haze
12:00 PM 84.2 °F 85.0 °F 62.6 °F 48% 29.86 in 3.1 mi North 9.2 mph - N/A   Haze
12:30 PM 84.2 °F 85.0 °F 62.6 °F 48% 29.86 in 3.1 mi NE 9.2 mph - N/A   Haze
1:00 PM 86.0 °F 86.6 °F 62.6 °F 45% 29.83 in 3.1 mi NNE 9.2 mph - N/A   Haze
1:30 PM 86.0 °F 86.6 °F 62.6 °F 45% 29.80 in 3.1 mi NE 9.2 mph - N/A   Haze
2:00 PM 87.8 °F 88.5 °F 62.6 °F 43% 29.80 in 3.1 mi NNE 9.2 mph - N/A   Haze
2:30 PM 87.8 °F 88.5 °F 62.6 °F 43% 29.77 in 3.1 mi North 9.2 mph - N/A   Haze
3:00 PM 87.8 °F 88.5 °F 62.6 °F 43% 29.77 in 3.1 mi NE 6.9 mph - N/A   Haze
3:30 PM 87.8 °F 88.5 °F 62.6 °F 43% 29.77 in 3.1 mi East 6.9 mph - N/A   Haze
4:00 PM 84.2 °F 86.6 °F 66.2 °F 55% 29.77 in 3.1 mi NW 6.9 mph - N/A   Haze
4:30 PM 86.0 °F 89.4 °F 68.0 °F 55% 29.77 in 3.1 mi NW 11.5 mph - N/A   Haze
5:00 PM 84.2 °F 87.3 °F 68.0 °F 58% 29.77 in 2.5 mi NNW 6.9 mph - N/A   Haze
5:30 PM 82.4 °F 85.4 °F 68.0 °F 62% 29.80 in 2.5 mi NNW 4.6 mph - N/A   Haze
6:00 PM 82.4 °F 84.6 °F 66.2 °F 58% 29.80 in 2.5 mi WSW 4.6 mph - N/A   Haze
6:30 PM 80.6 °F 82.7 °F 66.2 °F 61% 29.80 in 2.5 mi NNW 5.8 mph - N/A   Haze
7:00 PM 82.4 °F 85.4 °F 68.0 °F 62% 29.83 in 2.5 mi North 4.6 mph - N/A   Mostly Cloudy
7:30 PM 78.8 °F - 66.2 °F 65% 29.83 in 2.5 mi North 3.5 mph - N/A   Mostly Cloudy
8:00 PM 78.8 °F - 66.2 °F 65% 29.83 in 2.5 mi NNE 4.6 mph - N/A   Scattered Clouds
8:30 PM 78.8 °F - 66.2 °F 65% 29.83 in 1.9 mi North 3.5 mph - N/A   Scattered Clouds
9:00 PM 77.0 °F - 66.2 °F 69% 29.86 in 1.9 mi North 3.5 mph - N/A   Scattered Clouds
9:30 PM 77.0 °F - 64.4 °F 65% 29.86 in 1.9 mi North 3.5 mph - N/A   Scattered Clouds
10:00 PM 77.0 °F - 64.4 °F 65% 29.86 in 1.9 mi North 3.5 mph - N/A   Scattered Clouds
10:30 PM 77.0 °F - 64.4 °F 65% 29.86 in 1.9 mi North 6.9 mph - N/A   Mist
11:00 PM 77.0 °F - 64.4 °F 65% 29.86 in 1.9 mi North 6.9 mph - N/A   Mist
11:30 PM 77.0 °F - 64.4 °F 65% 29.86 in 1.9 mi North 5.8 mph - N/A   Mist